Location: Bannatyne
(13.0833°N, 59.5333°W)
Time: 15:37:19
(UTC+00:00)

deb Explorer IX - Pass Details

Date: 29 January 2020
Orbit: 549 x 1099 km, 38.8° (Epoch: 23 February)

Event Time Altitude Azimuth Distance (km) Brightness Sun altitude
Rises 08:20:49 0° 294° (WNW) 3,803 - -29.9°
Reaches altitude 10° 08:23:57 10° 285° (WNW) 2,786 - -29.2°
Maximum altitude 08:29:46 31° 225° (SW) 1,557 - -27.8°
Exits shadow 08:30:56 29° 205° (SSW) 1,594 ? -27.5°
Drops below altitude 10° 08:34:58 10° 164° (SSE) 2,462 ? -26.6°
Sets 08:37:35 0° 153° (SSE) 3,301 ? -26.0°
